PRIVATE WETTERSTATION BILLIGHEIM-ALLFELD                       ZURCK
Wetterdaten: Sonntag, 23.04.2017
Datum Zeit Temp. A. Temp. A. min Temp. A. max Feuchte A. Luftdruck Regen Wind Richtung Richtung Sonnenschein ET Solar Taupunkt Windchill Windben Empfang
23.04.2017 00:00 5,2 C 5,2 C 5,3 C 74 % 1022,7 hPa 0,0 l/m 0,0 km/h (0 Bft) W 270 0 min 0,025 mm 0 W/m 1,0 C 5,2 C 1,6 km/h (1 Bft) 100 %
23.04.2017 00:10 5,1 C 5,1 C 5,3 C 75 % 1022,7 hPa 0,0 l/m 0,0 km/h (0 Bft) N 0 0 min 0,000 mm 0 W/m 1,0 C 5,1 C 0,0 km/h (0 Bft) 100 %
23.04.2017 00:20 4,7 C 4,7 C 5,1 C 76 % 1022,7 hPa 0,0 l/m 0,0 km/h (0 Bft) N 0 0 min 0,000 mm 0 W/m 0,8 C 4,7 C 0,0 km/h (0 Bft) 100 %
23.04.2017 00:30 4,6 C 4,6 C 4,7 C 77 % 1022,7 hPa 0,0 l/m 0,0 km/h (0 Bft) N 0 0 min 0,000 mm 0 W/m 0,9 C 4,6 C 0,0 km/h (0 Bft) 100 %
23.04.2017 00:40 4,6 C 4,5 C 4,6 C 77 % 1022,7 hPa 0,0 l/m 0,0 km/h (0 Bft) N 0 0 min 0,000 mm 0 W/m 0,9 C 4,6 C 0,0 km/h (0 Bft) 100 %
23.04.2017 00:50 4,6 C 4,6 C 4,6 C 77 % 1022,7 hPa 0,0 l/m 0,0 km/h (0 Bft) N 0 0 min 0,000 mm 0 W/m 0,9 C 4,6 C 0,0 km/h (0 Bft) 89 %
23.04.2017 01:00 4,7 C 4,6 C 4,7 C 76 % 1022,8 hPa 0,0 l/m 0,0 km/h (0 Bft) W 270 0 min 0,025 mm 0 W/m 0,8 C 4,7 C 1,6 km/h (1 Bft) 100 %
23.04.2017 01:10 4,8 C 4,7 C 4,8 C 76 % 1022,8 hPa 0,0 l/m 0,0 km/h (0 Bft) N 0 0 min 0,000 mm 0 W/m 0,9 C 4,8 C 0,0 km/h (0 Bft) 100 %
23.04.2017 01:20 4,7 C 4,7 C 4,8 C 76 % 1022,8 hPa 0,0 l/m 0,0 km/h (0 Bft) N 0 0 min 0,000 mm 0 W/m 0,8 C 4,7 C 0,0 km/h (0 Bft) 100 %
23.04.2017 01:30 4,7 C 4,7 C 4,7 C 76 % 1022,8 hPa 0,0 l/m 0,0 km/h (0 Bft) N 0 0 min 0,000 mm 0 W/m 0,8 C 4,7 C 0,0 km/h (0 Bft) 100 %
23.04.2017 01:40 4,6 C 4,6 C 4,7 C 78 % 1022,9 hPa 0,0 l/m 0,0 km/h (0 Bft) N 0 0 min 0,000 mm 0 W/m 1,1 C 4,6 C 0,0 km/h (0 Bft) 100 %
23.04.2017 01:50 4,6 C 4,6 C 4,6 C 79 % 1022,8 hPa 0,0 l/m 0,0 km/h (0 Bft) N 0 0 min 0,000 mm 0 W/m 1,3 C 4,6 C 0,0 km/h (0 Bft) 100 %
23.04.2017 02:00 4,4 C 4,4 C 4,6 C 81 % 1022,7 hPa 0,0 l/m 0,0 km/h (0 Bft) N 0 0 min 0,025 mm 0 W/m 1,4 C 4,4 C 0,0 km/h (0 Bft) 100 %
23.04.2017 02:10 4,3 C 4,3 C 4,4 C 80 % 1022,6 hPa 0,0 l/m 0,0 km/h (0 Bft) W 270 0 min 0,000 mm 0 W/m 1,2 C 4,3 C 1,6 km/h (1 Bft) 100 %
23.04.2017 02:20 4,2 C 4,2 C 4,3 C 80 % 1022,5 hPa 0,0 l/m 0,0 km/h (0 Bft) N 0 0 min 0,000 mm 0 W/m 1,1 C 4,2 C 0,0 km/h (0 Bft) 100 %
23.04.2017 02:30 4,2 C 4,2 C 4,3 C 80 % 1022,6 hPa 0,0 l/m 0,0 km/h (0 Bft) W 270 0 min 0,000 mm 0 W/m 1,1 C 4,2 C 3,2 km/h (1 Bft) 100 %
23.04.2017 02:40 4,2 C 4,2 C 4,2 C 81 % 1022,5 hPa 0,0 l/m 0,0 km/h (0 Bft) N 0 0 min 0,000 mm 0 W/m 1,2 C 4,2 C 0,0 km/h (0 Bft) 88 %
23.04.2017 02:50 4,2 C 4,2 C 4,2 C 81 % 1022,4 hPa 0,0 l/m 0,0 km/h (0 Bft) N 0 0 min 0,000 mm 0 W/m 1,2 C 4,2 C 0,0 km/h (0 Bft) 100 %
23.04.2017 03:00 4,2 C 4,2 C 4,2 C 80 % 1022,4 hPa 0,0 l/m 0,0 km/h (0 Bft) W 270 0 min 0,000 mm 0 W/m 1,1 C 4,2 C 4,8 km/h (1 Bft) 100 %
23.04.2017 03:10 4,1 C 4,1 C 4,2 C 80 % 1022,4 hPa 0,0 l/m 0,0 km/h (0 Bft) W 270 0 min 0,000 mm 0 W/m 1,0 C 4,1 C 1,6 km/h (1 Bft) 100 %
23.04.2017 03:20 3,9 C 3,9 C 4,1 C 80 % 1022,4 hPa 0,0 l/m 0,0 km/h (0 Bft) W 270 0 min 0,000 mm 0 W/m 0,8 C 3,9 C 4,8 km/h (1 Bft) 100 %
23.04.2017 03:30 3,8 C 3,8 C 3,9 C 80 % 1022,4 hPa 0,0 l/m 0,0 km/h (0 Bft) W 270 0 min 0,000 mm 0 W/m 0,7 C 3,8 C 4,8 km/h (1 Bft) 100 %
23.04.2017 03:40 3,6 C 3,6 C 3,8 C 80 % 1022,3 hPa 0,0 l/m 0,0 km/h (0 Bft) N 0 0 min 0,000 mm 0 W/m 0,5 C 3,6 C 0,0 km/h (0 Bft) 100 %
23.04.2017 03:50 3,4 C 3,4 C 3,6 C 80 % 1022,4 hPa 0,0 l/m 0,0 km/h (0 Bft) W 270 0 min 0,000 mm 0 W/m 0,3 C 3,4 C 1,6 km/h (1 Bft) 100 %
23.04.2017 04:00 3,2 C 3,2 C 3,4 C 80 % 1022,6 hPa 0,0 l/m 0,0 km/h (0 Bft) N-NW 337 0 min 0,000 mm 0 W/m 0,1 C 3,2 C 3,2 km/h (1 Bft) 100 %
23.04.2017 04:10 3,1 C 3,1 C 3,2 C 80 % 1022,5 hPa 0,0 l/m 0,0 km/h (0 Bft) N 0 0 min 0,000 mm 0 W/m -0,0 C 3,1 C 0,0 km/h (0 Bft) 100 %
23.04.2017 04:20 2,8 C 2,8 C 3,1 C 82 % 1022,6 hPa 0,0 l/m 0,0 km/h (0 Bft) N 0 0 min 0,000 mm 0 W/m 0,0 C 2,8 C 0,0 km/h (0 Bft) 100 %
23.04.2017 04:30 2,6 C 2,6 C 2,8 C 82 % 1022,6 hPa 0,0 l/m 0,0 km/h (0 Bft) N-NW 337 0 min 0,000 mm 0 W/m -0,2 C 2,6 C 3,2 km/h (1 Bft) 100 %
23.04.2017 04:40 2,6 C 2,6 C 2,6 C 82 % 1022,6 hPa 0,0 l/m 0,0 km/h (0 Bft) N 0 0 min 0,000 mm 0 W/m -0,2 C 2,6 C 0,0 km/h (0 Bft) 100 %
23.04.2017 04:50 2,5 C 2,5 C 2,6 C 82 % 1022,8 hPa 0,0 l/m 0,0 km/h (0 Bft) N-NW 337 0 min 0,000 mm 0 W/m -0,3 C 2,5 C 1,6 km/h (1 Bft) 100 %
23.04.2017 05:00 2,3 C 2,3 C 2,5 C 82 % 1022,8 hPa 0,0 l/m 0,0 km/h (0 Bft) N 0 0 min 0,000 mm 0 W/m -0,4 C 2,3 C 0,0 km/h (0 Bft) 99 %
23.04.2017 05:10 2,1 C 2,1 C 2,3 C 83 % 1022,8 hPa 0,0 l/m 1,6 km/h (1 Bft) N-NW 337 0 min 0,000 mm 0 W/m -0,5 C 2,1 C 6,4 km/h (2 Bft) 98 %
23.04.2017 05:20 2,0 C 2,0 C 2,1 C 84 % 1022,9 hPa 0,0 l/m 0,0 km/h (0 Bft) N-NW 337 0 min 0,000 mm 0 W/m -0,4 C 2,0 C 1,6 km/h (1 Bft) 97 %
23.04.2017 05:30 1,7 C 1,7 C 2,0 C 84 % 1022,8 hPa 0,0 l/m 0,0 km/h (0 Bft) N-NW 337 0 min 0,000 mm 0 W/m -0,7 C 1,7 C 1,6 km/h (1 Bft) 98 %
23.04.2017 05:40 1,4 C 1,4 C 1,7 C 85 % 1022,9 hPa 0,0 l/m 0,0 km/h (0 Bft) N-NW 337 0 min 0,000 mm 0 W/m -0,8 C 1,4 C 1,6 km/h (1 Bft) 97 %
23.04.2017 05:50 1,2 C 1,2 C 1,4 C 86 % 1023,0 hPa 0,0 l/m 0,0 km/h (0 Bft) N 0 0 min 0,000 mm 0 W/m -0,9 C 1,2 C 0,0 km/h (0 Bft) 98 %
23.04.2017 06:00 0,9 C 0,9 C 1,2 C 86 % 1023,1 hPa 0,0 l/m 0,0 km/h (0 Bft) N 0 0 min 0,000 mm 0 W/m -1,2 C 0,9 C 0,0 km/h (0 Bft) 88 %
23.04.2017 06:10 0,8 C 0,8 C 0,9 C 87 % 1023,1 hPa 0,0 l/m 0,0 km/h (0 Bft) N 0 0 min 0,000 mm 0 W/m -1,1 C 0,8 C 0,0 km/h (0 Bft) 97 %
23.04.2017 06:20 0,8 C 0,8 C 0,8 C 88 % 1023,2 hPa 0,0 l/m 0,0 km/h (0 Bft) N 0 0 min 0,000 mm 5 W/m -1,0 C 0,8 C 0,0 km/h (0 Bft) 98 %
23.04.2017 06:30 0,7 C 0,7 C 0,8 C 87 % 1023,3 hPa 0,0 l/m 0,0 km/h (0 Bft) N 0 0 min 0,000 mm 12 W/m -1,2 C 0,7 C 0,0 km/h (0 Bft) 97 %
23.04.2017 06:40 0,5 C 0,5 C 0,7 C 87 % 1023,4 hPa 0,0 l/m 0,0 km/h (0 Bft) N 0 0 min 0,000 mm 16 W/m -1,4 C 0,5 C 0,0 km/h (0 Bft) 98 %
23.04.2017 06:50 0,4 C 0,4 C 0,5 C 88 % 1023,5 hPa 0,0 l/m 0,0 km/h (0 Bft) N 0 0 min 0,000 mm 23 W/m -1,3 C 0,4 C 0,0 km/h (0 Bft) 97 %
23.04.2017 07:00 0,4 C 0,4 C 0,4 C 88 % 1023,6 hPa 0,0 l/m 0,0 km/h (0 Bft) N 0 0 min 0,000 mm 30 W/m -1,3 C 0,4 C 0,0 km/h (0 Bft) 98 %
23.04.2017 07:10 0,6 C 0,4 C 0,6 C 89 % 1023,7 hPa 0,0 l/m 0,0 km/h (0 Bft) N 0 0 min 0,000 mm 46 W/m -1,0 C 0,6 C 0,0 km/h (0 Bft) 97 %
23.04.2017 07:20 0,7 C 0,6 C 0,7 C 88 % 1023,9 hPa 0,0 l/m 0,0 km/h (0 Bft) N-NW 337 0 min 0,000 mm 49 W/m -1,1 C 0,7 C 1,6 km/h (1 Bft) 98 %
23.04.2017 07:30 1,0 C 0,7 C 1,0 C 88 % 1023,9 hPa 0,0 l/m 0,0 km/h (0 Bft) N 0 0 min 0,000 mm 46 W/m -0,8 C 1,0 C 0,0 km/h (0 Bft) 98 %
23.04.2017 07:40 1,3 C 1,0 C 1,3 C 88 % 1024,0 hPa 0,0 l/m 0,0 km/h (0 Bft) N 0 0 min 0,000 mm 42 W/m -0,5 C 1,3 C 0,0 km/h (0 Bft) 97 %
23.04.2017 07:50 1,4 C 1,2 C 1,4 C 88 % 1024,2 hPa 0,0 l/m 0,0 km/h (0 Bft) N 0 0 min 0,000 mm 42 W/m -0,4 C 1,4 C 0,0 km/h (0 Bft) 98 %
23.04.2017 08:00 1,5 C 1,4 C 1,5 C 88 % 1024,2 hPa 0,0 l/m 0,0 km/h (0 Bft) N 0 0 min 0,025 mm 47 W/m -0,3 C 1,5 C 0,0 km/h (0 Bft) 97 %
23.04.2017 08:10 1,7 C 1,5 C 1,7 C 88 % 1024,2 hPa 0,0 l/m 0,0 km/h (0 Bft) N 0 0 min 0,000 mm 63 W/m -0,1 C 1,7 C 0,0 km/h (0 Bft) 97 %
23.04.2017 08:20 2,1 C 1,7 C 2,1 C 88 % 1024,3 hPa 0,0 l/m 0,0 km/h (0 Bft) N-NW 337 0 min 0,000 mm 130 W/m 0,3 C 2,1 C 1,6 km/h (1 Bft) 98 %
23.04.2017 08:30 2,8 C 2,1 C 2,8 C 87 % 1024,4 hPa 0,0 l/m 0,0 km/h (0 Bft) N-NW 337 10 min 0,000 mm 329 W/m 0,9 C 2,8 C 1,6 km/h (1 Bft) 97 %
23.04.2017 08:40 3,9 C 2,8 C 3,9 C 83 % 1024,4 hPa 0,0 l/m 4,8 km/h (1 Bft) NW 315 10 min 0,000 mm 369 W/m 1,3 C 3,9 C 16,1 km/h (3 Bft) 100 %
23.04.2017 08:50 5,0 C 3,9 C 5,0 C 78 % 1024,4 hPa 0,0 l/m 3,2 km/h (1 Bft) NW 315 10 min 0,000 mm 410 W/m 1,5 C 5,0 C 9,7 km/h (2 Bft) 100 %
23.04.2017 09:00 5,9 C 5,1 C 5,9 C 75 % 1024,4 hPa 0,0 l/m 3,2 km/h (1 Bft) NW 315 10 min 0,102 mm 432 W/m 1,8 C 5,9 C 9,7 km/h (2 Bft) 100 %
23.04.2017 09:10 6,7 C 6,0 C 6,7 C 69 % 1024,4 hPa 0,0 l/m 4,8 km/h (1 Bft) NW 315 10 min 0,000 mm 471 W/m 1,4 C 6,7 C 17,7 km/h (3 Bft) 99 %
23.04.2017 09:20 7,0 C 6,7 C 7,0 C 69 % 1024,4 hPa 0,0 l/m 4,8 km/h (1 Bft) NW 315 10 min 0,000 mm 499 W/m 1,7 C 7,0 C 11,3 km/h (2 Bft) 99 %
23.04.2017 09:30 7,3 C 7,0 C 7,3 C 67 % 1024,4 hPa 0,0 l/m 0,0 km/h (0 Bft) NW 315 10 min 0,000 mm 517 W/m 1,6 C 7,3 C 8,0 km/h (2 Bft) 100 %
23.04.2017 09:40 7,5 C 7,3 C 7,6 C 64 % 1024,4 hPa 0,0 l/m 1,6 km/h (1 Bft) NW 315 10 min 0,000 mm 577 W/m 1,1 C 7,5 C 9,7 km/h (2 Bft) 89 %
23.04.2017 09:50 8,1 C 7,4 C 8,1 C 68 % 1024,4 hPa 0,0 l/m 0,0 km/h (0 Bft) NW 315 10 min 0,000 mm 703 W/m 2,6 C 8,1 C 6,4 km/h (2 Bft) 100 %
23.04.2017 10:00 9,1 C 8,1 C 9,1 C 65 % 1024,5 hPa 0,0 l/m 4,8 km/h (1 Bft) NW 315 10 min 0,229 mm 738 W/m 2,9 C 9,1 C 14,5 km/h (3 Bft) 100 %
23.04.2017 10:10 9,1 C 9,1 C 9,3 C 62 % 1024,4 hPa 0,0 l/m 4,8 km/h (1 Bft) NW 315 10 min 0,000 mm 698 W/m 2,2 C 9,1 C 11,3 km/h (2 Bft) 99 %
23.04.2017 10:20 8,6 C 8,6 C 9,1 C 60 % 1024,4 hPa 0,0 l/m 3,2 km/h (1 Bft) N-NW 337 10 min 0,000 mm 763 W/m 1,3 C 8,6 C 8,0 km/h (2 Bft) 100 %
23.04.2017 10:30 8,4 C 8,4 C 8,6 C 60 % 1024,4 hPa 0,0 l/m 3,2 km/h (1 Bft) NW 315 10 min 0,000 mm 802 W/m 1,1 C 8,4 C 9,7 km/h (2 Bft) 100 %
23.04.2017 10:40 8,4 C 8,3 C 8,5 C 59 % 1024,4 hPa 0,0 l/m 1,6 km/h (1 Bft) N-NW 337 10 min 0,000 mm 814 W/m 0,9 C 8,4 C 8,0 km/h (2 Bft) 99 %
23.04.2017 10:50 8,0 C 8,0 C 8,4 C 61 % 1024,6 hPa 0,0 l/m 6,4 km/h (2 Bft) W-NW 292 10 min 0,000 mm 221 W/m 0,9 C 8,0 C 11,3 km/h (2 Bft) 99 %
23.04.2017 11:00 7,7 C 7,7 C 8,0 C 61 % 1024,6 hPa 0,0 l/m 3,2 km/h (1 Bft) W-NW 292 10 min 0,178 mm 223 W/m 0,7 C 7,7 C 11,3 km/h (2 Bft) 100 %
23.04.2017 11:10 7,6 C 7,6 C 7,7 C 62 % 1024,6 hPa 0,0 l/m 4,8 km/h (1 Bft) W-NW 292 10 min 0,000 mm 350 W/m 0,8 C 7,6 C 11,3 km/h (2 Bft) 100 %
23.04.2017 11:20 7,8 C 7,6 C 7,8 C 60 % 1024,6 hPa 0,0 l/m 1,6 km/h (1 Bft) N-NW 337 10 min 0,000 mm 390 W/m 0,5 C 7,8 C 11,3 km/h (2 Bft) 100 %
23.04.2017 11:30 8,0 C 7,8 C 8,0 C 58 % 1024,5 hPa 0,0 l/m 6,4 km/h (2 Bft) NW 315 10 min 0,000 mm 413 W/m 0,3 C 8,0 C 17,7 km/h (3 Bft) 100 %
23.04.2017 11:40 7,9 C 7,9 C 8,0 C 58 % 1024,5 hPa 0,0 l/m 4,8 km/h (1 Bft) NW 315 10 min 0,000 mm 237 W/m 0,2 C 7,9 C 14,5 km/h (3 Bft) 100 %
23.04.2017 11:50 7,9 C 7,9 C 7,9 C 57 % 1024,5 hPa 0,0 l/m 3,2 km/h (1 Bft) N-NW 337 10 min 0,000 mm 325 W/m -0,1 C 7,9 C 9,7 km/h (2 Bft) 100 %
23.04.2017 12:00 8,1 C 7,9 C 8,1 C 59 % 1024,6 hPa 0,0 l/m 4,8 km/h (1 Bft) NW 315 10 min 0,152 mm 357 W/m 0,6 C 8,1 C 17,7 km/h (3 Bft) 100 %
23.04.2017 12:10 8,2 C 8,1 C 8,3 C 56 % 1024,6 hPa 0,0 l/m 4,8 km/h (1 Bft) NW 315 10 min 0,000 mm 385 W/m -0,0 C 8,2 C 12,9 km/h (3 Bft) 100 %
23.04.2017 12:20 8,1 C 8,1 C 8,2 C 58 % 1024,6 hPa 0,0 l/m 4,8 km/h (1 Bft) NW 315 10 min 0,000 mm 234 W/m 0,3 C 8,1 C 16,1 km/h (3 Bft) 100 %
23.04.2017 12:40 8,2 C 7,9 C 8,2 C 58 % 1024,5 hPa 0,0 l/m 6,4 km/h (2 Bft) W-NW 302 20 min 0,000 mm 350 W/m 0,4 C 8,2 C 16,1 km/h (3 Bft) 97 %
23.04.2017 12:50 8,3 C 8,2 C 8,3 C 58 % 1024,4 hPa 0,0 l/m 1,2 km/h (1 Bft) N-NW 345 10 min 0,000 mm 230 W/m 0,5 C 8,3 C 8,0 km/h (2 Bft) 97 %
23.04.2017 13:00 8,3 C 8,2 C 8,3 C 55 % 1024,4 hPa 0,0 l/m 6,1 km/h (2 Bft) NW 308 10 min 0,128 mm 315 W/m -0,2 C 8,3 C 14,5 km/h (3 Bft) 97 %
23.04.2017 13:10 8,4 C 8,2 C 8,4 C 58 % 1024,5 hPa 0,0 l/m 6,4 km/h (2 Bft) W-NW 298 10 min 0,000 mm 383 W/m 0,6 C 8,4 C 16,1 km/h (3 Bft) 97 %
23.04.2017 13:20 8,6 C 8,4 C 8,6 C 56 % 1024,5 hPa 0,0 l/m 9,2 km/h (2 Bft) NW 312 10 min 0,000 mm 285 W/m 0,3 C 6,6 C 19,3 km/h (3 Bft) 98 %
23.04.2017 13:30 8,6 C 8,6 C 8,6 C 56 % 1024,4 hPa 0,0 l/m 5,8 km/h (2 Bft) W-NW 300 10 min 0,000 mm 295 W/m 0,3 C 8,6 C 14,5 km/h (3 Bft) 97 %
23.04.2017 13:40 8,8 C 8,6 C 8,8 C 56 % 1024,3 hPa 0,0 l/m 2,8 km/h (1 Bft) NW 318 10 min 0,000 mm 401 W/m 0,5 C 8,8 C 9,7 km/h (2 Bft) 98 %
23.04.2017 13:50 9,1 C 8,8 C 9,1 C 56 % 1024,2 hPa 0,0 l/m 9,2 km/h (2 Bft) N-NW 340 10 min 0,000 mm 584 W/m 0,8 C 7,1 C 17,7 km/h (3 Bft) 97 %
23.04.2017 14:00 9,7 C 9,1 C 9,7 C 53 % 1024,2 hPa 0,0 l/m 10,3 km/h (2 Bft) NW 318 10 min 0,000 mm 476 W/m 0,6 C 7,1 C 20,9 km/h (4 Bft) 98 %
23.04.2017 14:10 10,2 C 9,7 C 10,2 C 54 % 1024,2 hPa 0,0 l/m 8,5 km/h (2 Bft) NW 309 10 min 0,229 mm 325 W/m 1,3 C 8,7 C 16,1 km/h (3 Bft) 98 %
23.04.2017 14:20 10,1 C 10,1 C 10,2 C 53 % 1024,3 hPa 0,0 l/m 5,4 km/h (1 Bft) NW 315 10 min 0,000 mm 339 W/m 1,0 C 10,1 C 14,5 km/h (3 Bft) 97 %
23.04.2017 14:30 10,1 C 10,0 C 10,1 C 55 % 1024,1 hPa 0,0 l/m 1,1 km/h (1 Bft) NW 321 10 min 0,000 mm 376 W/m 1,5 C 10,1 C 8,0 km/h (2 Bft) 98 %
23.04.2017 14:40 10,1 C 10,0 C 10,1 C 52 % 1024,1 hPa 0,0 l/m 2,6 km/h (1 Bft) NW 306 10 min 0,000 mm 241 W/m 0,7 C 10,1 C 11,3 km/h (2 Bft) 97 %
23.04.2017 14:50 9,7 C 9,7 C 10,1 C 53 % 1024,1 hPa 0,0 l/m 8,0 km/h (2 Bft) NW 314 10 min 0,000 mm 264 W/m 0,6 C 8,5 C 17,7 km/h (3 Bft) 98 %
23.04.2017 15:00 9,5 C 9,5 C 9,7 C 51 % 1024,1 hPa 0,0 l/m 6,9 km/h (2 Bft) NW 304 10 min 0,228 mm 318 W/m -0,1 C 9,1 C 17,7 km/h (3 Bft) 98 %
23.04.2017 15:10 9,8 C 9,5 C 9,8 C 51 % 1023,9 hPa 0,0 l/m 4,1 km/h (1 Bft) N-NW 335 10 min 0,000 mm 388 W/m 0,2 C 9,8 C 14,5 km/h (3 Bft) 100 %
23.04.2017 15:20 10,0 C 9,8 C 10,0 C 52 % 1023,9 hPa 0,0 l/m 4,3 km/h (1 Bft) NW 304 10 min 0,000 mm 269 W/m 0,6 C 10,0 C 17,7 km/h (3 Bft) 100 %
23.04.2017 15:30 10,1 C 10,0 C 10,1 C 52 % 1023,8 hPa 0,0 l/m 5,2 km/h (1 Bft) NW 319 10 min 0,000 mm 204 W/m 0,7 C 10,1 C 16,1 km/h (3 Bft) 100 %
23.04.2017 15:40 9,8 C 9,8 C 10,1 C 50 % 1023,8 hPa 0,0 l/m 5,5 km/h (1 Bft) NW 316 10 min 0,000 mm 207 W/m -0,1 C 9,8 C 16,1 km/h (3 Bft) 100 %
23.04.2017 15:50 9,6 C 9,6 C 9,8 C 52 % 1023,8 hPa 0,0 l/m 6,9 km/h (2 Bft) NW 304 10 min 0,000 mm 169 W/m 0,2 C 9,2 C 16,1 km/h (3 Bft) 100 %
23.04.2017 16:00 9,5 C 9,5 C 9,6 C 52 % 1023,7 hPa 0,0 l/m 5,1 km/h (1 Bft) NW 313 0 min 0,153 mm 151 W/m 0,1 C 9,5 C 19,3 km/h (3 Bft) 100 %
23.04.2017 16:10 9,3 C 9,3 C 9,5 C 54 % 1023,6 hPa 0,0 l/m 3,7 km/h (1 Bft) NW 318 10 min 0,000 mm 200 W/m 0,5 C 9,3 C 14,5 km/h (3 Bft) 99 %
23.04.2017 16:20 9,3 C 9,3 C 9,4 C 54 % 1023,5 hPa 0,0 l/m 0,1 km/h (0 Bft) NW 321 10 min 0,000 mm 190 W/m 0,5 C 9,3 C 3,2 km/h (1 Bft) 91 %
23.04.2017 16:30 9,3 C 9,2 C 9,3 C 55 % 1023,5 hPa 0,0 l/m 0,0 km/h (0 Bft) NW 322 10 min 0,000 mm 209 W/m 0,7 C 9,3 C 0,0 km/h (0 Bft) 100 %
23.04.2017 16:40 9,6 C 9,3 C 9,6 C 53 % 1023,5 hPa 0,0 l/m 2,2 km/h (1 Bft) NW 326 10 min 0,000 mm 218 W/m 0,5 C 9,6 C 8,0 km/h (2 Bft) 100 %
23.04.2017 16:50 9,9 C 9,6 C 9,9 C 53 % 1023,4 hPa 0,0 l/m 3,6 km/h (1 Bft) NW 305 10 min 0,000 mm 181 W/m 0,8 C 9,9 C 11,3 km/h (2 Bft) 100 %
23.04.2017 17:00 9,9 C 9,9 C 10,0 C 53 % 1023,4 hPa 0,0 l/m 3,7 km/h (1 Bft) NW 313 0 min 0,101 mm 149 W/m 0,8 C 9,9 C 14,5 km/h (3 Bft) 100 %
23.04.2017 17:10 9,7 C 9,7 C 9,9 C 53 % 1023,4 hPa 0,0 l/m 0,9 km/h (0 Bft) NW 325 10 min 0,000 mm 167 W/m 0,6 C 9,7 C 6,4 km/h (2 Bft) 100 %
23.04.2017 17:20 9,5 C 9,5 C 9,7 C 53 % 1023,4 hPa 0,0 l/m 2,3 km/h (1 Bft) N-NW 336 10 min 0,000 mm 171 W/m 0,4 C 9,5 C 9,7 km/h (2 Bft) 100 %
23.04.2017 17:30 9,4 C 9,4 C 9,5 C 53 % 1023,3 hPa 0,0 l/m 0,3 km/h (0 Bft) N-NO 31 0 min 0,000 mm 149 W/m 0,3 C 9,4 C 6,4 km/h (2 Bft) 100 %
23.04.2017 17:40 9,5 C 9,4 C 9,5 C 52 % 1023,2 hPa 0,0 l/m 0,0 km/h (0 Bft) N 360 0 min 0,000 mm 141 W/m 0,1 C 9,5 C 1,6 km/h (1 Bft) 100 %
23.04.2017 17:50 9,7 C 9,5 C 9,7 C 52 % 1023,2 hPa 0,0 l/m 2,7 km/h (1 Bft) W-NW 298 0 min 0,000 mm 137 W/m 0,3 C 9,7 C 9,7 km/h (2 Bft) 100 %
23.04.2017 18:00 10,0 C 9,7 C 10,0 C 51 % 1023,2 hPa 0,0 l/m 1,8 km/h (1 Bft) W-NW 297 0 min 0,076 mm 114 W/m 0,3 C 10,0 C 8,0 km/h (2 Bft) 100 %
23.04.2017 18:10 10,2 C 10,0 C 10,2 C 51 % 1023,1 hPa 0,0 l/m 6,3 km/h (2 Bft) W-NW 297 0 min 0,000 mm 118 W/m 0,5 C 10,2 C 16,1 km/h (3 Bft) 100 %
23.04.2017 18:20 10,2 C 10,2 C 10,2 C 52 % 1023,1 hPa 0,0 l/m 3,5 km/h (1 Bft) NW 317 0 min 0,000 mm 107 W/m 0,8 C 10,2 C 11,3 km/h (2 Bft) 100 %
23.04.2017 18:30 9,9 C 9,9 C 10,2 C 51 % 1023,1 hPa 0,0 l/m 2,9 km/h (1 Bft) NW 325 0 min 0,000 mm 84 W/m 0,2 C 9,9 C 11,3 km/h (2 Bft) 100 %
23.04.2017 18:40 9,7 C 9,7 C 9,9 C 49 % 1023,1 hPa 0,0 l/m 0,8 km/h (0 Bft) N-NW 338 0 min 0,000 mm 42 W/m -0,5 C 9,7 C 9,7 km/h (2 Bft) 100 %
23.04.2017 18:50 9,4 C 9,4 C 9,7 C 51 % 1023,1 hPa 0,0 l/m 4,2 km/h (1 Bft) NW 320 0 min 0,000 mm 33 W/m -0,2 C 9,4 C 11,3 km/h (2 Bft) 100 %
23.04.2017 19:00 8,9 C 8,9 C 9,4 C 52 % 1023,1 hPa 0,0 l/m 5,0 km/h (1 Bft) NW 325 0 min 0,051 mm 32 W/m -0,4 C 8,9 C 14,5 km/h (3 Bft) 100 %
23.04.2017 19:10 8,5 C 8,5 C 8,9 C 53 % 1023,2 hPa 0,0 l/m 4,1 km/h (1 Bft) N 355 0 min 0,000 mm 37 W/m -0,5 C 8,5 C 11,3 km/h (2 Bft) 100 %
23.04.2017 19:20 8,3 C 8,3 C 8,5 C 54 % 1023,2 hPa 0,0 l/m 2,5 km/h (1 Bft) N-NW 330 0 min 0,000 mm 35 W/m -0,5 C 8,3 C 11,3 km/h (2 Bft) 100 %
23.04.2017 19:30 8,2 C 8,2 C 8,3 C 55 % 1023,2 hPa 0,0 l/m 2,9 km/h (1 Bft) N-NW 336 0 min 0,000 mm 28 W/m -0,3 C 8,2 C 8,0 km/h (2 Bft) 100 %
23.04.2017 19:40 7,9 C 7,9 C 8,2 C 56 % 1023,1 hPa 0,0 l/m 0,0 km/h (0 Bft) N-NW 337 0 min 0,000 mm 19 W/m -0,3 C 7,9 C 0,0 km/h (0 Bft) 100 %
23.04.2017 19:50 7,6 C 7,6 C 7,9 C 58 % 1023,2 hPa 0,0 l/m 0,0 km/h (0 Bft) N-NW 338 0 min 0,000 mm 23 W/m -0,1 C 7,6 C 0,0 km/h (0 Bft) 100 %
23.04.2017 20:00 7,2 C 7,2 C 7,6 C 58 % 1023,2 hPa 0,0 l/m 0,0 km/h (0 Bft) N-NW 338 0 min 0,026 mm 18 W/m -0,5 C 7,2 C 0,0 km/h (0 Bft) 100 %
23.04.2017 20:10 6,9 C 6,9 C 7,2 C 61 % 1023,2 hPa 0,0 l/m 0,0 km/h (0 Bft) N-NW 338 0 min 0,000 mm 11 W/m -0,1 C 6,9 C 0,0 km/h (0 Bft) 100 %
23.04.2017 20:20 6,6 C 6,6 C 6,9 C 62 % 1023,2 hPa 0,0 l/m 0,0 km/h (0 Bft) N-NW 338 0 min 0,000 mm 5 W/m -0,1 C 6,6 C 0,0 km/h (0 Bft) 99 %
23.04.2017 20:30 6,2 C 6,2 C 6,6 C 62 % 1023,1 hPa 0,0 l/m 0,0 km/h (0 Bft) N-NW 338 0 min 0,000 mm 0 W/m -0,5 C 6,2 C 0,0 km/h (0 Bft) 100 %
23.04.2017 20:40 5,8 C 5,8 C 6,2 C 63 % 1023,3 hPa 0,0 l/m 0,0 km/h (0 Bft) N-NW 338 0 min 0,000 mm 0 W/m -0,7 C 5,8 C 0,0 km/h (0 Bft) 99 %
23.04.2017 20:50 5,4 C 5,4 C 5,8 C 64 % 1023,4 hPa 0,0 l/m 0,0 km/h (0 Bft) N-NW 337 0 min 0,000 mm 0 W/m -0,9 C 5,4 C 0,0 km/h (0 Bft) 100 %
23.04.2017 21:00 5,2 C 5,2 C 5,4 C 63 % 1023,4 hPa 0,0 l/m 0,0 km/h (0 Bft) N-NW 338 0 min 0,000 mm 0 W/m -1,3 C 5,2 C 0,0 km/h (0 Bft) 100 %
23.04.2017 21:10 5,0 C 5,0 C 5,2 C 66 % 1023,5 hPa 0,0 l/m 0,0 km/h (0 Bft) N 0 0 min 0,000 mm 0 W/m -0,8 C 5,0 C 0,0 km/h (0 Bft) 100 %
23.04.2017 21:20 4,7 C 4,7 C 5,0 C 66 % 1023,6 hPa 0,0 l/m 0,0 km/h (0 Bft) N 0 0 min 0,000 mm 0 W/m -1,1 C 4,7 C 0,0 km/h (0 Bft) 91 %
23.04.2017 21:30 4,4 C 4,4 C 4,7 C 67 % 1023,7 hPa 0,0 l/m 0,0 km/h (0 Bft) N 0 0 min 0,000 mm 0 W/m -1,2 C 4,4 C 0,0 km/h (0 Bft) 100 %
23.04.2017 21:40 4,0 C 4,0 C 4,4 C 68 % 1023,8 hPa 0,0 l/m 0,0 km/h (0 Bft) N 0 0 min 0,000 mm 0 W/m -1,4 C 4,0 C 0,0 km/h (0 Bft) 100 %
23.04.2017 21:50 3,7 C 3,7 C 4,0 C 69 % 1023,8 hPa 0,0 l/m 0,0 km/h (0 Bft) N 0 0 min 0,000 mm 0 W/m -1,4 C 3,7 C 0,0 km/h (0 Bft) 100 %
23.04.2017 22:00 3,6 C 3,6 C 3,7 C 69 % 1023,7 hPa 0,0 l/m 0,0 km/h (0 Bft) N 0 0 min 0,025 mm 0 W/m -1,5 C 3,6 C 0,0 km/h (0 Bft) 100 %
23.04.2017 22:10 3,4 C 3,4 C 3,6 C 71 % 1023,7 hPa 0,0 l/m 0,0 km/h (0 Bft) N 0 0 min 0,000 mm 0 W/m -1,3 C 3,4 C 0,0 km/h (0 Bft) 100 %
23.04.2017 22:20 3,2 C 3,2 C 3,4 C 70 % 1023,7 hPa 0,0 l/m 0,0 km/h (0 Bft) N 0 0 min 0,000 mm 0 W/m -1,7 C 3,2 C 0,0 km/h (0 Bft) 100 %
23.04.2017 22:30 3,0 C 3,0 C 3,2 C 71 % 1023,7 hPa 0,0 l/m 0,0 km/h (0 Bft) N 0 0 min 0,000 mm 0 W/m -1,7 C 3,0 C 0,0 km/h (0 Bft) 100 %
23.04.2017 22:40 2,7 C 2,7 C 3,0 C 73 % 1023,6 hPa 0,0 l/m 0,0 km/h (0 Bft) N 0 0 min 0,000 mm 0 W/m -1,6 C 2,7 C 0,0 km/h (0 Bft) 100 %
23.04.2017 22:50 2,4 C 2,4 C 2,7 C 75 % 1023,6 hPa 0,0 l/m 0,0 km/h (0 Bft) N 0 0 min 0,000 mm 0 W/m -1,6 C 2,4 C 0,0 km/h (0 Bft) 100 %
23.04.2017 23:00 2,1 C 2,1 C 2,4 C 76 % 1023,6 hPa 0,0 l/m 0,0 km/h (0 Bft) N 0 0 min 0,025 mm 0 W/m -1,7 C 2,1 C 0,0 km/h (0 Bft) 100 %
23.04.2017 23:10 1,7 C 1,7 C 2,1 C 78 % 1023,5 hPa 0,0 l/m 0,0 km/h (0 Bft) N 0 0 min 0,000 mm 0 W/m -1,7 C 1,7 C 0,0 km/h (0 Bft) 100 %
23.04.2017 23:20 1,4 C 1,4 C 1,7 C 80 % 1023,4 hPa 0,0 l/m 0,0 km/h (0 Bft) N 0 0 min 0,000 mm 0 W/m -1,7 C 1,4 C 0,0 km/h (0 Bft) 100 %
23.04.2017 23:30 1,2 C 1,2 C 1,4 C 80 % 1023,5 hPa 0,0 l/m 0,0 km/h (0 Bft) N-NW 337 0 min 0,000 mm 0 W/m -1,9 C 1,2 C 4,8 km/h (1 Bft) 100 %
23.04.2017 23:40 0,8 C 0,8 C 1,2 C 82 % 1023,4 hPa 0,0 l/m 0,0 km/h (0 Bft) N 360 0 min 0,000 mm 0 W/m -1,9 C 0,8 C 1,6 km/h (1 Bft) 100 %
23.04.2017 23:50 0,8 C 0,8 C 0,9 C 82 % 1023,4 hPa 0,0 l/m 0,0 km/h (0 Bft) N 0 0 min 0,000 mm 0 W/m -1,9 C 0,8 C 0,0 km/h (0 Bft) 100 %
_ Min-Zeit 06:50 06:50 07:00 18:40 03:40 - 00:00 - - - - - 23:40 06:50 00:10 06:00
Minimum _ 0,4 C 0,4 C 0,4 C 49 % 1022,3 hPa - 0,0 km/h (0 Bft) - - - - - -1,9 C 0,4 C 0,0 km/h (0 Bft) 88 %
_ Max-Zeit 14:10 18:20 14:10 07:10 10:50 00:00 14:00 - - 12:40 10:00 10:40 10:00 18:10 14:00 00:10
Maximum _ 10,2 C 10,2 C 10,2 C 89 % 1024,6 hPa 0,0 l/m 10,3 km/h
NW (2 Bft)
- - 20 min 0,229 mm 814 W/m 2,9 C 10,2 C 20,9 km/h
NW (4 Bft)
100 %
Durchschnitt _ 5,8 C 5,7 C 5,9 C 68 % 1023,5 hPa #0,0 l/m 1,8 km/h (1 Bft) NW - #8:40 h #1,803 mm 250 W/m 0,1 C 5,7 C 5,9 km/h (2 Bft) 99 %
PRIVATE WETTERSTATION BILLIGHEIM-ALLFELD - www.neckar-odenwald-wetter.de - Holger Sonntag